Regional Weather Roundup
Issued by NWS State College, PA

Home | Current Version | Previous Version | Graphics & Text | Print | Product List | Glossary Off
Versions: 1 2 3 4 5 6 7 8 9 10 11 12 13 14 15 16 17 18 19 20 21 22 23 24 25 26 27 28 29 30 31 32 33 34 35 36 37 38 39 40 41 42 43 44 45 46 47 48 49 50

000
ASUS41 KCTP 260403
RWRCTP

REGIONAL WEATHER ROUNDUP
NATIONAL WEATHER SERVICE STATE COLLEGE PA
1200 AM EDT FRI MAY 26 2017

Note: "fair" indicates few or no clouds below 12,000 feet with no
significant weather and/or obstructions to visibility.

* = STATION THAT DOES NOT REPORT PRECIPITATION /E.G. RAIN...SNOW...ETC/
    THUNDER OR FOG.

PAZ002>004-007>009-013>016-020>023-029>032-260500-
WESTERN PENNSYLVANIA

CITY           SKY/WX    TMP DP  RH WIND       PRES   REMARKS
ERIE           LGT RAIN  56  55  97 CALM      29.56R
MEADVILLE      LGT RAIN  56  55  97 W7        29.58S
FRANKLIN*      CLOUDY    55  52  88 W7        29.59R
NEW CASTLE     LGT RAIN  57  56  96 CALM      29.61R
BEAVER COUNTY  NOT AVBL
BUTLER*        CLOUDY    57  54  88 W8        29.60R
PITTSBURGH INT LGT RAIN  58  57  97 W5        29.59S
PITTSBURGH     LGT RAIN  57  54  89 W10       29.59R
INDIANA*       CLOUDY    57  57 100 W7        29.61R
LATROBE        LGT RAIN  57  57 100 SW9       29.60R
WASHINGTON CO* MOCLDY    57  55  94 W5        29.63R
$$

PAZ004>006-010>012-017>019-024>028-033>037-041-042-045-046-049>053-260500-
CENTRAL PENNSYLVANIA

CITY           SKY/WX    TMP DP  RH WIND       PRES   REMARKS
BRADFORD       CLOUDY    55  55 100 W5        29.56R
DUBOIS         CLOUDY    55  52  89 W10       29.56R
CLEARFIELD     CLOUDY    56  56 100 VRB3      29.57R
JOHNSTOWN      CLOUDY    55  53  93 W10G16    29.58S
ALTOONA        CLOUDY    57  55  93 CALM      29.58R
STATE COLLEGE  CLOUDY    56  55  99 S5        29.56R
WILLIAMSPORT   CLOUDY    59  58  96 W5        29.51S
SELINSGROVE    PTCLDY    58  57  97 CALM      29.52S
FT INDIANTOWN  NOT AVBL
CAPITAL CITY   LGT RAIN  61  55  81 W9        29.53R
HARRISBURG     RAIN      61  59  93 NW13      29.52R FOG
YORK           LGT RAIN  59  58  96 W3        29.54R
$$

PAZ038>040-043-044-047-048-054-055-060>062-067>071-260500-
EASTERN PENNSYLVANIA

CITY           SKY/WX    TMP DP  RH WIND       PRES   REMARKS
SCRANTON       MOCLDY    59  56  89 CALM      29.50S
MOUNT POCONO   CLOUDY    53  53 100 CALM      29.51S
ALLENTOWN      RAIN      60  56  86 VRB5      29.49F
QUAKERTOWN*    CLOUDY    57  57 100 N7        29.48F
READING        LGT RAIN  59  59 100 NE3       29.47F
LANCASTER      CLOUDY    62  61  96 NW9       29.49S FOG
COATESVILLE    LGT RAIN  55  55 100 W3        29.49F
POTTSTOWN      CLOUDY    56  54  93 N7        29.47F
BLUE BELL      CLOUDY    55  55 100 CALM      29.48R
DOYLESTOWN     LGT RAIN  56  56 100 N10       29.45F
WILLOW GROVE   NOT AVBL
NORTH PHILA    LGT RAIN  58  56  93 S5        29.49R
PHILADELPHIA   CLOUDY    59  56  89 S5        29.49R
$$




USA.gov is the U.S. government's official web portal to all federal, state and local government web resources and services.